Location: Jonesport
(44.5330°N, 67.5990°W)
Time: 00:42:12
(UTC-04:00)

Iridium 35 - Visible Passes

Search period start: 03 September 2014 00:00
Search period end: 13 September 2014 00:00
Orbit: 776 x 779 km, 86.4° (Epoch: 02 September)

Date Brightness Start Highest point End Pass type
(mag) Time Alt. Az. Time Alt. Az. Time Alt. Az.
03 Sep 5.9 02:57:38 38° ESE 02:58:53 45° E 03:03:50 10° NNE visible
03 Sep 6.2 04:38:08 20° WSW 04:39:50 23° WNW 04:43:56 10° NNW visible
04 Sep 6.7 02:24:36 24° E 02:25:34 26° E 02:29:49 10° NNE visible
04 Sep 5.5 04:05:05 36° WSW 04:06:03 40° W 04:10:57 10° N visible
05 Sep 7.4 01:51:32 14° E 01:52:22 15° ENE 01:55:10 10° NE visible
05 Sep 4.9 03:32:01 68° WSW 03:32:25 71° W 03:37:38 10° N visible
06 Sep 5.2 02:58:56 65° E 02:58:56 65° E 03:04:04 10° N visible
06 Sep 6.6 04:39:26 16° W 04:40:08 17° WNW 04:43:23 10° NNW visible
07 Sep 6.3 02:25:50 36° ENE 02:25:50 36° ENE 02:30:14 10° NNE visible
07 Sep 6.0 04:06:19 28° WNW 04:06:19 28° WNW 04:10:45 10° NNW visible
08 Sep 7.1 01:52:42 21° ENE 01:52:42 21° ENE 01:56:02 10° NNE visible
08 Sep 5.4 03:33:12 47° WNW 03:33:12 47° WNW 03:37:37 10° N visible
09 Sep 7.7 01:19:34 11° ENE 01:19:34 11° ENE 01:20:47 10° NE visible
09 Sep 5.4 03:00:03 57° N 03:00:03 57° N 03:04:12 10° N visible
09 Sep 7.0 04:40:33 12° WNW 04:40:33 12° WNW 04:42:13 10° NW visible
10 Sep 6.2 02:26:54 40° NE 02:26:54 40° NE 02:30:32 10° NNE visible
10 Sep 6.6 04:07:23 20° WNW 04:07:23 20° WNW 04:10:23 10° NNW visible
11 Sep 7.0 01:53:44 24° NE 01:53:44 24° NE 01:56:34 10° NNE visible
11 Sep 6.2 03:34:13 30° NW 03:34:13 30° NW 03:37:30 10° NNW visible
12 Sep 7.6 01:20:33 15° NE 01:20:33 15° NE 01:22:07 10° NE visible
12 Sep 6.1 03:01:02 37° NNW 03:01:02 37° NNW 03:04:14 10° N visible
